Flag for Finland Weather past 2 weeks in Turku, Finland

Now
72 °F

Passing clouds.


Feels Like: 76 °F
Forecast: 62 / 78 °F
Wind: 12 mph from West

Location: Turku Airport

Current Time: Aug 1, 2014 at 7:16:07 PM

Latest Report: Aug 1, 2014 at 6:50 PM


Visibility: N/A

Pressure: 29.92 "Hg

Humidity: 61%

Dew point: 57 °F

Location of TurkuLocation

Historic Weather in Turku — Graph

°F

Turku temperature yesterday

Maximum temperature yesterday: 77 °F (at 9:50 AM)
Minimum temperature yesterday: 63 °F (at 11:50 PM)
Average temperature yesterday: 70 °F

Past Weeks' High & Low Weather Summary

 TemperatureHumidityPressure
High88 °F (Jul 24, 5:50 PM)100% (Jul 18, 2:50 AM)30.27 "Hg (Jul 18, 2:50 AM)
Low52 °F (Jul 18, 5:50 AM)22% (Jul 26, 4:50 PM)29.59 "Hg (Jul 31, 9:20 AM)
Average71 °F67%30.02 "Hg
* Reported Jul 17 6:20 PM — Aug 1 6:20 PM, Turku, Weather by CustomWeather, © 2014

Note: Actual official high and low records may vary slightly from our data, if they occured in-between our weather recording intervals... More about our weather records

Advertising

Turku weather history for previous 24 hours

 ConditionsComfort  
Time TempWeatherWind HumidityBarometerVisibility
6:20 PM
Aug 1
72 °FPassing clouds.12 mph61%29.89 "HgN/A
5:50 PM72 °FPassing clouds.12 mph61%29.89 "HgN/A
5:20 PM72 °FPassing clouds.15 mph57%29.89 "HgN/A
4:50 PM73 °FPassing clouds.17 mph53%29.89 "HgN/A
4:20 PM73 °FPassing clouds.15 mph50%29.89 "HgN/A
3:50 PM73 °FPassing clouds.10 mph53%29.89 "HgN/A
3:20 PM73 °FPassing clouds.12 mph50%29.89 "HgN/A
2:50 PM73 °FPassing clouds.13 mph50%29.89 "HgN/A
2:20 PM73 °FScattered clouds.12 mph53%29.86 "HgN/A
1:50 PM73 °FPassing clouds.12 mph53%29.86 "HgN/A
1:20 PM73 °FPassing clouds.10 mph57%29.86 "HgN/A
12:50 PM73 °FPassing clouds.12 mph53%29.86 "HgN/A
12:20 PM72 °FScattered clouds.13 mph57%29.86 "HgN/A
11:50 AM72 °FScattered clouds.12 mph57%29.83 "HgN/A
11:20 AM72 °FScattered clouds.10 mph57%29.83 "HgN/A
10:50 AM72 °FScattered clouds.12 mph53%29.83 "HgN/A
10:20 AM72 °FPassing clouds.10 mph57%29.83 "HgN/A
9:50 AM72 °FPassing clouds.9 mph57%29.80 "HgN/A
9:20 AM70 °FPassing clouds.12 mph60%29.80 "HgN/A
8:50 AM70 °FPassing clouds.10 mph64%29.80 "HgN/A
8:20 AM68 °FPassing clouds.8 mph69%29.80 "HgN/A
7:50 AM68 °FPassing clouds.5 mph69%29.80 "HgN/A
7:20 AM66 °FPassing clouds.3 mph78%29.77 "HgN/A
6:50 AM64 °FSunny.1 mph83%29.77 "Hg10 mi
6:20 AM59 °FSunny.2 mph88%29.77 "Hg10 mi
5:50 AM57 °FClear.2 mph94%29.77 "Hg10 mi
5:20 AM55 °FClear.3 mph100%29.77 "Hg10 mi
4:50 AM57 °FClear.1 mph94%29.74 "Hg10 mi
4:20 AM57 °FClear.1 mph100%29.74 "Hg10 mi
3:50 AM59 °FPassing clouds.3 mph94%29.74 "HgN/A
3:20 AM61 °FClear.3 mph88%29.74 "Hg10 mi
2:50 AM63 °FClear.3 mph88%29.74 "Hg10 mi
2:20 AM64 °FPassing clouds.5 mph88%29.71 "HgN/A
1:50 AM64 °FClear.5 mph88%29.71 "Hg10 mi
1:20 AM63 °FClear.5 mph94%29.71 "Hg10 mi
12:50 AM63 °FClear.3 mph94%29.71 "Hg10 mi
12:20 AM63 °FPassing clouds.3 mph94%29.71 "HgN/A
11:50 PM
Jul 31
63 °FClear.3 mph94%29.71 "Hg10 mi
11:20 PM64 °FClear.3 mph88%29.71 "Hg10 mi
10:50 PM64 °FSunny.2 mph88%29.68 "Hg10 mi
10:20 PM66 °FPassing clouds.3 mph83%29.68 "HgN/A
9:50 PM70 °FPassing clouds.5 mph73%29.68 "HgN/A
9:20 PM70 °FPassing clouds.5 mph69%29.68 "HgN/A
8:50 PM72 °FPassing clouds.7 mph65%29.68 "HgN/A
8:20 PM72 °FPassing clouds.8 mph65%29.68 "HgN/A
7:50 PM73 °FPassing clouds.10 mph57%29.68 "HgN/A
7:20 PM73 °FPassing clouds.9 mph61%29.68 "HgN/A
Weather by CustomWeather, © 2014

See weather overviewHow to use our weather pages